Погода в Бахмуте

Украина / Донецкая область     48°35′22″N   38°00′07″E
темп.,
°C
ветер,
м/с
пор.,
м/с
влажн.,
%
обл.,
%
осадки,
мм/ч
давл.,
гПа
погр.,
м
21 апреля, ср
ср2100:00+9ююз71289100 0.1 1004863
03:00+9юз71293100 0.7 1006789
06:00+8зюз61189100 0.3 1009593
09:00+10зюз797489 0.3 1013983
12:00+14зюз8104885 0.0 10142086
15:00+16зюз8103989 0.0 10142654
18:00+14зюз684775 0.0 1015861
21:00+10ююз486892 0.0 1018185
22 апреля, чт
чт2200:00+10ююз51074100 0.1 1019319
03:00+8ююз378321 0.3 1020153
06:00+7ююз36925 0.0 1021141
09:00+12юз44675 0.0 1022610
12:00+16зюз344635 0.1 10211909
15:00+16юз3341100 0.1 10211941
18:00+14зюз235873 0.4 1021138
21:00+12ююз226494 0.6 102230
23 апреля, пт
пт2300:00+11юз2373100 0.0 102161
03:00+10юз3578100 0.0 1021148
06:00+10ююз3681100 0.0 1021217
09:00+13юз45625 0.0 1021671
12:00+17юз674435 0.1 10202181
15:00+16юз4744100 0.1 10181125
18:00+15ююз694879 0.0 1017675
21:00+12ююз61163100 0.0 1018435
24 апреля, сб
сб2400:00+11ююз61267100 0.0 1016530
03:00+9юз497679 0.3 1015358
06:00+8зсз4691100 1.0 1015522
09:00+7зсз577897 3.1 1017964
12:00+12з6944100 0.1 10162422
15:00+13з7113874 0.1 10162857
18:00+9з8116388 0.2 10161326
21:00+6з611581 0.4 1018742
25 апреля, вс
вс2500:00+4з59735 0.0 1020457
03:00+3зюз59875 0.0 1020286
06:00+2з49885 0.0 1021286
09:00+7зсз45543 0.0 10211026
12:00+10зсз4540100 0.0 10212083
15:00+12зсз4434100 0.0 10192290
18:00+11з2338100 0.0 10191886
21:00+8зюз2349100 0.0 101948